Location: Taukkyan
(23.1052°N, 94.0030°E)
Time: 11:21:03
(UTC+00:00)

CZ-2C R/B - Pass Details

Date: 06 July 2020
Orbit: 703 x 909 km, 98.1° (Epoch: 15 August)

Event Time Altitude Azimuth Distance (km) Brightness Sun altitude
Rises 13:29:14 0° 177° (S) 3,521 6.1 -12.1°
Reaches altitude 10° 13:31:42 10° 181° (S) 2,577 5.4 -12.6°
Maximum altitude 13:37:22 58° 259° (W) 1,032 3.9 -13.7°
Drops below altitude 10° 13:42:54 10° 338° (NNW) 2,509 6.5 -14.7°
Sets 13:45:17 0° 342° (NNW) 3,421 7.2 -15.2°
